Time,TemperatureF,DewpointF,PressureIn,WindDirection,WindDirectionDegrees,WindSpeedMPH,WindSpeedGustMPH,Humidity,HourlyPrecipIn,Conditions,Clouds,dailyrainin,SoftwareType,DateUTC
2013-07-06 00:03:00,76.8,69.0,29.99,South,172,0.0,1.0,77,0.00,,,0.00,weatherlink.com 1.10,2013-07-06 04:03:00,
2013-07-06 00:18:00,76.3,69.0,29.99,South,178,0.0,0.0,79,0.00,,,0.00,weatherlink.com 1.10,2013-07-06 04:18:00,
2013-07-06 00:33:00,75.7,69.0,29.99,South,178,0.0,0.0,80,0.00,,,0.00,weatherlink.com 1.10,2013-07-06 04:33:00,
2013-07-06 00:48:00,75.0,69.0,29.99,South,178,0.0,0.0,82,0.00,,,0.00,weatherlink.com 1.10,2013-07-06 04:48:00,
2013-07-06 01:03:00,74.5,69.0,29.99,South,178,0.0,0.0,83,0.00,,,0.00,weatherlink.com 1.10,2013-07-06 05:03:00,
2013-07-06 01:18:00,74.2,69.0,29.99,South,178,0.0,0.0,83,0.00,,,0.00,weatherlink.com 1.10,2013-07-06 05:18:00,
2013-07-06 01:33:00,73.8,69.0,29.98,South,178,0.0,0.0,84,0.00,,,0.00,weatherlink.com 1.10,2013-07-06 05:33:00,
2013-07-06 01:48:00,73.1,69.0,29.99,South,178,0.0,0.0,86,0.00,,,0.00,weatherlink.com 1.10,2013-07-06 05:48:00,
2013-07-06 02:03:00,72.7,69.0,29.99,South,178,0.0,0.0,87,0.00,,,0.00,weatherlink.com 1.10,2013-07-06 06:03:00,
2013-07-06 02:18:00,72.5,69.0,29.99,South,180,0.0,0.0,88,0.00,,,0.00,weatherlink.com 1.10,2013-07-06 06:18:00,
2013-07-06 02:34:00,73.0,69.0,29.99,WNW,290,0.0,1.0,86,0.00,,,0.00,weatherlink.com 1.10,2013-07-06 06:34:00,
2013-07-06 02:49:00,73.0,69.0,29.98,WNW,298,0.0,0.0,86,0.00,,,0.00,weatherlink.com 1.10,2013-07-06 06:49:00,
2013-07-06 03:04:00,73.0,68.0,29.98,WNW,298,0.0,0.0,85,0.00,,,0.00,weatherlink.com 1.10,2013-07-06 07:04:00,
2013-07-06 03:19:00,72.9,69.0,29.98,WSW,242,0.0,0.0,87,0.00,,,0.00,weatherlink.com 1.10,2013-07-06 07:19:00,
2013-07-06 03:34:00,72.7,69.0,29.99,SSW,213,0.0,1.0,87,0.00,,,0.00,weatherlink.com 1.10,2013-07-06 07:34:00,
2013-07-06 03:49:00,72.6,69.0,29.98,ENE,57,0.0,0.0,88,0.00,,,0.00,weatherlink.com 1.10,2013-07-06 07:49:00,
2013-07-06 04:04:00,72.4,69.0,29.98,ENE,57,0.0,0.0,88,0.00,,,0.00,weatherlink.com 1.10,2013-07-06 08:04:00,
2013-07-06 04:19:00,72.1,68.0,29.98,ENE,57,0.0,0.0,88,0.00,,,0.00,weatherlink.com 1.10,2013-07-06 08:19:00,
2013-07-06 04:34:00,71.6,68.0,29.98,ENE,57,0.0,0.0,89,0.00,,,0.00,weatherlink.com 1.10,2013-07-06 08:34:00,
2013-07-06 04:49:00,71.3,68.0,29.98,ENE,57,0.0,0.0,90,0.00,,,0.00,weatherlink.com 1.10,2013-07-06 08:49:00,
2013-07-06 05:04:00,71.2,68.0,29.97,ENE,57,0.0,0.0,90,0.00,,,0.00,weatherlink.com 1.10,2013-07-06 09:04:00,
2013-07-06 05:19:00,71.5,69.0,29.97,SSW,201,0.0,0.0,90,0.00,,,0.00,weatherlink.com 1.10,2013-07-06 09:19:00,
2013-07-06 05:34:00,71.8,69.0,29.98,SSE,165,0.0,1.0,89,0.00,,,0.00,weatherlink.com 1.10,2013-07-06 09:34:00,
2013-07-06 05:49:00,72.1,69.0,29.98,South,174,0.0,0.0,89,0.00,,,0.00,weatherlink.com 1.10,2013-07-06 09:49:00,
2013-07-06 06:04:00,73.2,69.0,29.98,South,182,0.0,2.0,86,0.00,,,0.00,weatherlink.com 1.10,2013-07-06 10:04:00,
2013-07-06 06:19:00,73.5,69.0,29.98,SSW,202,0.0,2.0,86,0.00,,,0.00,weatherlink.com 1.10,2013-07-06 10:19:00,
2013-07-06 06:34:00,73.6,69.0,29.98,WSW,245,0.0,0.0,86,0.00,,,0.00,weatherlink.com 1.10,2013-07-06 10:34:00,
2013-07-06 06:49:00,73.7,69.0,29.98,South,186,0.0,3.0,86,0.00,,,0.00,weatherlink.com 1.10,2013-07-06 10:49:00,
2013-07-06 07:04:00,74.0,70.0,29.98,SE,135,0.0,2.0,86,0.00,,,0.00,weatherlink.com 1.10,2013-07-06 11:04:00,
2013-07-06 07:19:00,74.6,70.0,29.99,SW,222,0.0,1.0,86,0.00,,,0.00,weatherlink.com 1.10,2013-07-06 11:19:00,
2013-07-06 07:34:00,75.2,70.0,29.99,WNW,288,0.0,2.0,84,0.00,,,0.00,weatherlink.com 1.10,2013-07-06 11:34:00,
2013-07-06 07:49:00,76.1,70.0,29.98,NW,317,0.0,3.0,82,0.00,,,0.00,weatherlink.com 1.10,2013-07-06 11:49:00,
2013-07-06 08:04:00,77.4,69.0,29.98,North,360,0.0,2.0,75,0.00,,,0.00,weatherlink.com 1.10,2013-07-06 12:04:00,
2013-07-06 08:19:00,78.7,68.0,29.98,WSW,242,0.0,1.0,69,0.00,,,0.00,weatherlink.com 1.10,2013-07-06 12:19:00,
2013-07-06 08:34:00,79.7,69.0,29.98,WSW,249,0.0,3.0,69,0.00,,,0.00,weatherlink.com 1.10,2013-07-06 12:34:00,
2013-07-06 08:49:00,80.1,69.0,29.98,South,177,0.0,4.0,68,0.00,,,0.00,weatherlink.com 1.10,2013-07-06 12:49:00,
2013-07-06 09:04:00,80.2,69.0,29.98,South,184,0.0,1.0,69,0.00,,,0.00,weatherlink.com 1.10,2013-07-06 13:04:00,
2013-07-06 09:19:00,81.1,69.0,29.97,NNE,22,0.0,1.0,67,0.00,,,0.00,weatherlink.com 1.10,2013-07-06 13:19:00,
2013-07-06 09:34:00,81.9,69.0,29.97,SW,230,0.0,1.0,65,0.00,,,0.00,weatherlink.com 1.10,2013-07-06 13:34:00,
2013-07-06 09:49:00,82.3,68.0,29.97,WSW,257,0.0,3.0,62,0.00,,,0.00,weatherlink.com 1.10,2013-07-06 13:49:00,
2013-07-06 10:04:00,82.5,69.0,29.97,West,279,0.0,2.0,64,0.00,,,0.00,weatherlink.com 1.10,2013-07-06 14:04:00,
2013-07-06 10:19:00,82.6,69.0,29.97,West,270,0.0,0.0,63,0.00,,,0.00,weatherlink.com 1.10,2013-07-06 14:19:00,
2013-07-06 10:34:00,82.4,69.0,29.97,North,5,0.0,2.0,64,0.00,,,0.00,weatherlink.com 1.10,2013-07-06 14:34:00,
2013-07-06 10:49:00,82.8,67.0,29.96,NNE,32,6.0,9.0,60,0.00,,,0.00,weatherlink.com 1.10,2013-07-06 14:49:00,
2013-07-06 11:04:00,82.8,67.0,29.96,NE,46,5.0,5.0,60,0.00,,,0.00,weatherlink.com 1.10,2013-07-06 15:04:00,
2013-07-06 11:19:00,82.5,69.0,29.97,NE,51,2.0,5.0,64,0.00,,,0.00,weatherlink.com 1.10,2013-07-06 15:19:00,
2013-07-06 11:34:00,82.3,66.0,29.97,East,88,5.0,7.0,59,0.00,,,0.00,weatherlink.com 1.10,2013-07-06 15:34:00,
2013-07-06 11:49:00,82.6,68.0,29.97,NE,47,0.0,6.0,61,0.00,,,0.00,weatherlink.com 1.10,2013-07-06 15:49:00,
2013-07-06 12:34:00,84.0,66.0,29.97,West,281,2.0,15.0,55,0.00,,,0.00,weatherlink.com 1.10,2013-07-06 16:34:00,
2013-07-06 12:49:00,84.3,66.0,29.96,NNE,29,0.0,10.0,55,0.00,,,0.00,weatherlink.com 1.10,2013-07-06 16:49:00,
2013-07-06 13:19:00,84.5,67.0,29.96,NNE,28,0.0,6.0,55,0.00,,,0.00,weatherlink.com 1.10,2013-07-06 17:19:00,
2013-07-06 13:34:00,84.8,66.0,29.95,ENE,59,1.0,8.0,53,0.00,,,0.00,weatherlink.com 1.10,2013-07-06 17:34:00,
2013-07-06 14:35:00,86.7,69.0,29.93,SW,220,0.0,7.0,55,0.00,,,0.00,weatherlink.com 1.10,2013-07-06 18:35:00,
2013-07-06 14:50:00,87.4,68.0,29.93,SW,219,1.0,4.0,52,0.00,,,0.00,weatherlink.com 1.10,2013-07-06 18:50:00,
2013-07-06 15:05:00,88.4,69.0,29.92,SSW,213,0.0,2.0,53,0.00,,,0.00,weatherlink.com 1.10,2013-07-06 19:05:00,
2013-07-06 15:20:00,88.6,67.0,29.92,NE,38,1.0,5.0,49,0.00,,,0.00,weatherlink.com 1.10,2013-07-06 19:20:00,
2013-07-06 15:35:00,88.5,66.0,29.92,NE,55,0.0,5.0,47,0.00,,,0.00,weatherlink.com 1.10,2013-07-06 19:35:00,
2013-07-06 15:50:00,88.3,66.0,29.92,SE,136,0.0,3.0,47,0.00,,,0.00,weatherlink.com 1.10,2013-07-06 19:50:00,
2013-07-06 16:05:00,87.8,68.0,29.91,NE,46,3.0,6.0,52,0.00,,,0.00,weatherlink.com 1.10,2013-07-06 20:05:00,
2013-07-06 16:20:00,87.2,68.0,29.91,ENE,65,2.0,6.0,53,0.00,,,0.00,weatherlink.com 1.10,2013-07-06 20:20:00,
2013-07-06 16:51:00,85.6,66.0,29.90,East,101,1.0,5.0,53,0.00,,,0.00,weatherlink.com 1.10,2013-07-06 20:51:00,
2013-07-06 17:05:00,86.0,67.0,29.90,ESE,111,0.0,2.0,54,0.00,,,0.00,weatherlink.com 1.10,2013-07-06 21:05:00,
2013-07-06 17:20:00,86.0,68.0,29.90,SW,223,0.0,3.0,56,0.00,,,0.00,weatherlink.com 1.10,2013-07-06 21:20:00,
2013-07-06 17:35:00,85.1,66.0,29.90,SSE,167,0.0,5.0,53,0.00,,,0.00,weatherlink.com 1.10,2013-07-06 21:35:00,
2013-07-06 18:20:00,84.9,66.0,29.91,NNE,17,0.0,8.0,53,0.00,,,0.00,weatherlink.com 1.10,2013-07-06 22:20:00,
2013-07-06 18:50:00,83.6,62.0,29.91,NE,36,0.0,3.0,49,0.00,,,0.00,weatherlink.com 1.10,2013-07-06 22:50:00,
2013-07-06 19:05:00,82.9,62.0,29.92,NE,40,0.0,5.0,49,0.00,,,0.00,weatherlink.com 1.10,2013-07-06 23:05:00,
2013-07-06 19:50:00,80.6,62.0,29.91,WNW,284,0.0,6.0,53,0.00,,,0.00,weatherlink.com 1.10,2013-07-06 23:50:00,
2013-07-06 22:31:00,70.0,62.0,29.95,NE,48,0.0,0.0,76,0.00,,,0.00,weatherlink.com 1.10,2013-07-07 02:31:00,
2013-07-06 22:50:00,70.6,61.0,29.95,South,179,0.0,4.0,71,0.00,,,0.00,weatherlink.com 1.10,2013-07-07 02:50:00,
2013-07-06 23:20:00,71.4,60.0,29.95,SW,223,0.0,0.0,67,0.00,,,0.00,weatherlink.com 1.10,2013-07-07 03:20:00,